Regional Weather Roundup
Issued by NWS Spokane, WA

Home | Current Version | Previous Version | Text Only | Print | Product List | Glossary On
Versions: 1 2 3 4 5 6 7 8 9 10 11 12 13 14 15 16 17 18 19 20 21 22 23 24 25 26 27 28 29 30 31 32 33 34 35 36 37 38 39 40 41 42 43 44 45 46 47 48 49 50
000
NZUS01 KOTX 251200
RWROTX
EASTERN WASHINGTON/NORTHERN IDAHO ROUNDUP
NATIONAL WEATHER SERVICE, SPOKANE WA
500 AM PDT MON MAY 25 2015

Note: "fair" indicated few or no clouds below 12,000 feet with no
significant weather and/or obstructions to visibility.

...NORTHEAST WASHINGTON AND NORTHERN IDAHO PANHANDLE...

CITY           SKY/WX    TMP DP  RH WIND       PRES   REMARKS
SPOKANE INTL   LGT RAIN  54  52  93 E12G21    29.82F
SPOKANE DOWNTO HVY RAIN  55  52  89 VRB5      29.85F FOG
COEUR D ALENE  CLOUDY    55  50  82 W9        29.88R
DEER PARK      LGT RAIN  53  51  93 NE8       29.86F

...SOUTHEAST WASHINGTON AND SOUTHERN IDAHO PANHANDLE...

CITY           SKY/WX    TMP DP  RH WIND       PRES   REMARKS
WALLA WALLA    MOCLDY    58  45  62 S12       29.89R
PULLMAN/MOSCOW CLOUDY    53  46  77 VRB6      29.88R
LOWELL           N/A     51  49  92 CALM      29.89S

...COLUMBIA BASIN...

CITY           SKY/WX    TMP DP  RH WIND       PRES   REMARKS
EPHRATA        PTCLDY    58  45  62 N10       29.85R
MOSES LAKE     MOCLDY    55  47  74 NW7       29.85R
TRI CITIES     MOCLDY    59  49  69 SW7       29.86R
HERMISTON      PTCLDY    57  46  66 SW10      29.87F
PENDLETON      PTCLDY    54  43  66 CALM      29.90S

...EAST SLOPES CASCADES...

CITY           SKY/WX    TMP DP  RH WIND       PRES   REMARKS
THE DALLES     MOCLDY    58  48  69 NW15G24   29.91S
YAKIMA         MOCLDY    61  40  45 NW14      29.88R
ELLENSBURG     CLEAR     54  43  66 NW16G23   29.89R
WENATCHEE      CLEAR     58  40  51 NW8       29.88R
OMAK           CLEAR     52  48  86 NW10      29.89R

...SOUTHERN BRITISH COLUMBIA...

CITY           SKY/WX    TMP DP  RH WIND       PRES   REMARKS

...WESTERN MONTANA...

CITY           SKY/WX    TMP DP  RH WIND       PRES   REMARKS
MISSOULA       CLEAR     45  39  79 SE5       29.93R

...NEIGHBORING CITIES...

CITY           SKY/WX    TMP DP  RH WIND       PRES   REMARKS
SEATTLE        CLOUDY    53  47  79 S5        30.01F



USA.gov is the U.S. government's official web portal to all federal, state and local government web resources and services.